STARLINK-32330, 61850

Orbit data source: Space-Track

STARLINK-32330, 61850 is a payload satellite owned by SpaceX/Seattle (US) in LEO that was launched on Thu, 07 Nov 2024 UTC via an FALCON 9 launch vehicle from the Air Force Eastern Test Range (AFETR). Payload-class satellites include a variety of spacecraft equipped with specific instruments for various scientific and technological missions. These include communications satellites like Starlink; space stations such as the ISS; scientific satellites like the Hubble; Earth observation satellites from companies like Planet Labs, Umbra, and HawkEye 360; GPS; miniature CubeSats for education and research; and military/defense satellites.

Loading next visibility...
Identifier
61850, 2024-202F
Orbit
LEO
Last TLE update
15 hours ago
Origin
Manufacturer
SpaceX/Seattle
Mission
Operational Commercial Communications
Bus & Motor
STARLINK V2M, Unknown motor
Mass
730 kg wet, ~700 kg dry
Launch date (UTC)
2024-11-07 (8 months ago)
Launch vehicle
FALCON 9
Launch site
Air Force Eastern Test Range (AFETR)
Object type
Payload
Rocket body
Debris
Shape & HBR
Box + 2 Pan, 29 m
Radar Cross Section
33.884 m², Large (>1 m²)

Expand to show TLE details & history

TLE from 15 hours ago
0 STARLINK-32330
1 61850U 24202F   25181.66667824  .00022326  00000-0  81845-3 0  9996
2 61850  43.0019 220.9215 0001768 279.6725 244.1502 15.27577175  5820
Epoch: 2025-06-30T16:00Z
TLE epoch observation values (Epoch: 2025-06-30T16:00:00.999Z)
Latitude
10.97512°
Longitude
-129.99083°
Altitude
482.602 km
Speed
7.627 km/s
True Right ascension
01h 55m 56s
True Declination
10° 54' 30"
Sunlit
Object was in daylight at epoch
Visualization orbit readout
Latitude
-41.28448°
Longitude
-52.03009°
Altitude
494.494 km
Speed
7.618 km/s
Apparent Right ascension
06h 39m 10s
Apparent Declination
-40° 40' 35"
Sunlit
Object is in daylight
Visualization observer readout
Local Sidereal Time
18:08:58
Azimuth
260.047° W
Elevation
-84.192°
Doppler factor
1
Orbital elements
Apogee altitude
486.216 km
Perigee altitude
483.789 km
Semi-major axis
6,863.139 km
Eccentricity
0.00018
Inclination
43.0019°
RAAN
220.9215°
Arg. of periapsis
279.6725°
True anomaly
Unknown
Mean anomaly
244.1502°
Eccentric anomaly
Unknown
Mean motion
3.81732 °/min
Orbital period
94.31 mins
BSTAR
0.00081845
Loading maneuver chart data...
Loading SW <> Apogee altitude chart data...
Loading historical data...
Loading historical data...
Loading historical data...
Loading historical data...
Loading historical data...
Loading historical data...
Loading historical data...

STARLINK-32330 Visibility forecast

Observer location: undefined°, undefined°

Span
Click to sort rows by Start time (UTC) header in descending order
Start Az.
Max El. time (UTC)
Max El. Az.
Max El.
End time (UTC)
End Az.
7 mins2025-07-01 07:14:10.183Z255.918° W2025-07-01 07:17:10.183Z276.16° WNW42.502°2025-07-01 07:21:10.183Z71.095° E
6 mins2025-07-01 08:54:10.183Z288.99° WNW2025-07-01 08:57:10.183Z25.563° NE36.959°2025-07-01 09:00:10.183Z77.806° E
6 mins2025-07-01 10:33:10.183Z287.818° WNW2025-07-01 10:36:10.183Z116.942° SE44.223°2025-07-01 10:39:10.183Z110.158° ESE
4 mins2025-07-01 12:13:10.183Z245.3° WSW2025-07-01 12:14:10.183Z223.801° SW20.198°2025-07-01 12:17:10.183Z166.044° S
5 mins2025-07-02 05:09:10.183Z191.898° SSW2025-07-02 05:11:10.183Z145.693° SSE24.031°2025-07-02 05:14:10.183Z89.984° E
|